Theta_e
334 329 321 319 310 311 309 313 317 311 313 318 319 316 317 320 317 315 342 342 340 351 351 357 362 363 364 366 365 365 364 364 363 363 363 363 363 362 362 361 359 356 353 349 345 342 340 338 337
327 325 319 316 309 307 310 316 310 315 316 318 318 317 316 315 325 331 338 342 341 353 352 352 361 362 364 365 365 364 364 364 363 363 362 362 362 362 362 361 359 355 352 349 344 342 339 339 339
328 324 314 312 310 308 310 313 313 315 316 316 315 319 318 320 330 336 344 343 341 353 352 354 360 361 362 364 364 364 364 364 364 363 362 362 362 361 361 360 359 355 352 347 344 342 341 341 339
324 321 315 308 307 313 315 313 314 313 315 317 317 315 320 328 331 340 345 346 340 349 351 358 359 360 361 362 363 362 363 363 364 363 363 363 362 361 360 359 358 356 351 347 345 343 343 341 341
323 317 308 306 307 312 317 316 313 312 313 315 318 315 319 328 334 342 344 345 340 346 349 360 359 360 361 362 362 361 362 362 362 363 363 362 362 360 359 358 357 355 352 349 346 345 345 344 342
315 315 305 302 305 311 315 317 316 312 314 315 316 317 321 330 329 342 345 345 341 345 348 360 359 360 360 361 361 360 360 360 360 361 361 361 360 359 358 357 356 355 354 352 349 348 347 346 344
312 311 306 307 306 307 311 317 316 313 314 314 320 316 322 326 328 341 344 343 341 344 346 358 356 360 361 360 360 359 359 359 359 359 359 359 359 358 357 357 356 356 354 353 351 349 348 347 345
315 311 307 308 306 306 311 313 316 316 314 322 321 315 318 324 328 336 344 340 339 342 344 354 354 354 356 358 361 360 359 359 358 358 358 359 358 357 356 356 355 355 355 353 352 350 349 348 347
318 308 304 306 308 310 313 309 314 319 317 319 320 320 323 325 328 332 340 337 336 339 343 349 349 351 351 351 357 359 359 359 358 358 358 357 351 353 352 351 354 355 354 353 352 351 349 348 346
310 307 308 312 313 312 314 312 311 313 316 317 318 323 324 323 324 325 330 337 336 336 340 345 347 349 348 345 355 355 354 355 355 353 355 354 350 352 350 352 353 355 354 353 352 351 350 346 337
309 305 311 313 315 316 314 313 315 314 311 315 315 320 320 321 322 323 327 333 337 338 339 342 352 358 349 344 348 352 348 350 353 354 358 359 350 351 348 348 350 351 351 345 346 344 341 338 338
305 309 310 312 314 315 314 316 314 315 314 318 319 320 319 319 320 322 324 328 332 338 339 342 348 353 358 347 344 348 346 347 348 350 362 359 353 356 354 347 347 352 346 348 345 342 346 344 342
306 307 310 312 313 314 316 314 314 314 317 318 319 320 318 317 318 322 325 329 330 333 341 340 346 355 360 359 350 350 350 345 348 350 357 354 352 357 352 353 346 346 343 343 344 342 344 342 343
308 307 308 310 310 312 312 313 314 314 317 316 315 317 319 319 317 318 321 325 328 330 331 338 344 355 354 357 359 355 361 349 346 350 352 361 354 360 348 350 345 343 340 340 341 344 344 343 344
307 303 305 307 308 308 311 306 307 314 316 313 314 317 319 321 322 317 319 323 325 328 328 334 343 348 355 356 355 354 348 348 347 346 358 358 359 360 356 347 344 342 345 350 347 345 347 343 345
303 303 298 305 306 307 306 300 308 312 313 311 311 312 314 317 319 319 318 320 326 328 328 331 331 345 354 355 354 351 347 347 347 347 349 355 357 358 356 345 344 343 344 341 341 341 343 345 344
301 296 298 301 306 306 304 300 307 311 312 311 311 311 311 312 315 317 316 320 324 330 330 332 336 335 340 357 354 354 358 353 348 348 345 354 353 352 352 345 345 355 342 342 343 343 347 347 349
295 297 298 298 303 303 301 301 305 309 310 309 309 310 311 313 312 316 316 320 322 326 330 332 334 336 336 339 355 350 350 352 352 350 348 351 353 349 351 347 349 350 343 341 341 349 351 349 347
299 298 297 300 303 300 300 302 304 308 307 306 307 309 310 310 314 314 317 319 320 325 327 331 331 337 338 337 335 339 342 350 348 349 355 353 353 353 352 350 350 349 344 346 353 349 348 346 349
298 297 297 300 302 301 300 300 303 306 306 307 307 308 309 310 311 313 317 318 319 321 325 328 331 334 332 331 336 339 337 339 347 351 354 354 354 354 353 353 350 351 344 352 344 351 345 346 349
298 296 297 297 300 302 299 297 300 304 306 306 307 308 309 310 311 312 315 317 318 319 321 323 327 334 335 334 333 338 340 340 339 337 350 355 355 355 354 355 352 353 348 345 343 351 351 342 349
294 300 299 297 295 291 300 290 298 301 302 304 305 306 307 310 312 313 314 316 317 318 320 321 325 329 331 334 331 340 331 328 332 338 345 351 356 357 356 355 354 356 348 345 350 351 352 353 344
296 300 298 298 295 295 295 292 296 301 300 301 304 307 308 311 312 313 313 315 316 318 319 322 326 327 330 333 333 330 333 329 332 332 345 353 358 360 355 357 357 356 347 350 352 358 359 352 347
301 298 298 297 295 288 293 293 294 298 300 302 305 306 308 309 311 313 314 315 316 317 319 321 324 325 327 330 331 332 332 332 329 331 333 335 341 349 359 357 357 358 353 353 356 357 359 353 351
299 295 288 287 287 287 296 293 295 300 302 303 303 306 307 309 311 311 312 313 315 316 318 319 321 322 325 326 327 329 332 335 333 334 330 333 333 338 352 360 358 357 356 360 362 358 356 355 353
296 295 288 282 283 286 295 289 294 302 304 304 304 305 306 307 310 310 311 313 314 315 317 319 319 320 323 324 326 328 330 328 330 335 334 331 332 337 349 358 359 359 358 359 362 356 355 357 355
296 292 297 290 291 288 291 295 300 301 301 302 303 305 306 308 310 310 312 312 313 316 317 318 319 320 321 322 325 327 329 331 331 339 342 333 339 339 345 355 356 358 359 358 360 355 358 357 358
298 299 290 291 283 281 287 289 290 297 299 301 302 304 306 308 309 311 311 313 314 316 317 319 319 319 321 322 323 324 327 328 332 336 338 343 343 344 344 349 358 360 359 360 361 358 360 360 356
294 293 294 293 291 284 283 288 299 299 301 301 303 304 307 308 309 311 312 313 314 315 315 317 318 319 319 320 321 324 324 326 330 333 336 337 341 343 342 345 350 357 360 361 362 360 358 357 357
299 295 295 288 287 290 289 288 300 302 303 303 303 306 308 309 310 311 312 313 313 313 314 315 317 317 317 318 318 319 323 325 329 330 333 338 340 345 343 344 346 351 356 361 360 356 354 354 352
Wind_Speed
18 10 3 8 9 9 16 19 1 2 4 1 7 6 11 13 14 7 6 5 16 21 22 23 19 16 14 14 15 15 14 15 15 15 14 14 13 13 13 12 11 11 10 9 8 7 7 6 6
12 9 6 6 10 13 13 19 6 13 7 4 6 10 12 11 14 9 12 6 14 19 19 23 19 18 15 14 14 14 14 15 15 15 15 14 13 13 12 11 11 10 10 9 8 8 7 6 6
13 9 8 7 13 16 15 5 4 4 1 6 4 3 8 7 13 9 8 2 13 18 18 19 22 19 16 14 14 14 14 14 14 14 13 13 12 11 10 9 8 9 9 9 9 8 8 7 6
7 7 8 12 20 18 21 6 6 5 9 5 2 8 5 8 10 11 12 8 12 18 19 20 22 20 17 14 12 12 14 13 13 12 12 11 10 10 9 8 7 7 8 8 8 8 8 8 7
9 8 11 16 21 24 14 15 3 9 8 6 2 8 1 8 12 11 9 9 14 18 19 21 19 20 18 15 12 11 11 12 12 12 12 11 11 10 9 8 8 7 6 7 7 7 7 6 6
10 9 14 15 19 19 7 16 17 10 7 9 6 4 2 8 14 11 10 7 15 17 18 19 19 18 18 16 12 10 9 9 10 11 11 11 11 10 10 9 9 9 7 7 7 6 6 6 6
15 13 16 19 18 16 14 15 21 12 11 9 6 11 2 15 15 6 5 4 14 18 17 16 18 16 16 16 14 12 10 9 9 9 10 10 9 9 9 10 10 9 8 8 7 7 7 7 7
13 14 23 18 16 15 17 10 15 20 18 16 4 7 9 12 13 8 4 5 13 17 17 17 16 17 16 15 12 12 11 9 8 7 9 9 9 9 9 7 8 9 8 8 8 8 7 7 6
17 17 18 22 24 12 16 13 13 14 24 15 13 7 7 11 12 9 4 5 9 13 15 16 17 17 17 16 14 12 13 11 10 10 9 9 9 11 12 11 9 12 9 9 8 8 8 8 9
20 16 26 21 21 18 14 12 15 13 24 20 20 14 7 13 13 11 8 10 10 13 15 15 16 16 16 13 15 14 13 11 11 12 12 10 11 9 11 12 14 13 11 9 9 9 10 9 9
21 23 23 24 25 23 13 12 12 17 12 21 23 14 14 15 13 11 6 9 12 9 10 13 12 12 14 13 11 8 8 9 9 14 11 10 9 9 8 6 8 9 12 9 12 11 9 12 10
25 26 23 26 27 18 15 18 10 15 15 18 24 10 12 18 13 12 9 3 9 5 14 9 11 7 10 9 10 10 10 10 9 12 12 8 7 7 7 7 9 8 7 9 8 7 9 12 12
22 23 23 23 23 22 17 21 18 14 11 8 21 21 13 14 14 12 9 7 4 7 8 10 10 11 7 9 7 8 7 10 10 10 12 11 10 8 8 7 8 6 7 8 7 8 7 9 10
18 17 21 24 16 22 21 19 19 20 15 14 19 21 20 17 12 12 3 5 5 5 4 3 8 10 11 10 9 5 4 7 8 8 8 12 10 7 9 8 8 8 8 8 7 7 7 8 9
15 20 17 21 14 19 16 23 27 20 16 17 18 19 21 21 22 12 4 5 3 7 4 8 4 6 9 12 10 8 8 8 7 8 9 11 12 8 9 9 9 9 8 7 6 6 4 8 7
13 19 19 20 23 23 22 26 25 25 22 14 16 15 14 14 18 13 2 1 5 5 4 7 9 2 4 10 7 9 10 9 9 9 10 11 11 13 11 10 9 9 8 8 7 8 9 7 9
18 16 23 24 22 19 24 25 23 25 15 19 15 14 15 11 8 3 3 2 3 7 5 7 12 10 6 2 8 9 8 7 7 9 10 12 15 14 12 11 9 9 8 7 6 9 7 6 5
17 21 18 20 8 10 20 23 19 18 14 14 15 17 13 14 12 10 3 1 2 5 6 4 7 6 6 9 5 6 5 8 8 8 9 10 10 12 11 11 10 9 9 8 9 9 4 6 5
18 16 19 12 12 5 14 18 17 16 17 18 17 17 14 11 11 9 5 2 4 5 5 4 8 6 2 2 3 2 6 7 10 6 11 10 10 13 13 11 11 11 11 12 10 8 3 9 7
15 17 18 15 8 10 15 20 18 18 16 19 20 18 18 15 13 9 8 5 3 3 5 6 8 7 5 5 6 3 2 5 4 4 9 11 12 13 13 14 11 14 11 12 12 9 8 9 8
16 17 16 15 10 9 14 23 23 22 25 21 19 21 18 18 14 11 8 6 4 4 3 2 3 4 4 6 4 5 6 6 5 7 6 4 8 13 16 14 14 13 13 12 10 7 13 10 8
16 12 14 13 12 14 11 14 16 5 6 12 13 15 15 11 10 8 9 7 5 3 1 1 2 5 6 8 4 6 7 8 8 5 5 5 16 15 15 15 16 13 12 14 10 9 10 10 9
14 9 10 13 16 18 20 15 15 20 14 14 12 13 8 14 14 14 11 6 3 3 1 1 4 3 4 6 6 8 9 8 8 7 8 8 7 12 15 15 16 14 13 13 10 11 11 9 7
13 10 14 17 16 18 20 20 17 13 13 13 12 10 12 11 9 9 6 5 6 5 5 3 6 4 5 5 8 6 11 11 10 10 10 9 8 10 13 15 14 14 13 15 11 13 16 10 10
13 14 13 16 17 16 15 11 13 5 6 14 12 12 11 11 10 10 9 7 5 7 7 6 7 6 7 8 8 9 11 12 12 12 12 13 10 10 9 13 13 13 13 14 11 10 12 12 11
10 15 11 11 13 14 10 7 7 12 12 2 3 6 6 7 10 4 6 8 8 9 7 9 9 8 9 10 10 9 10 10 9 10 10 11 11 11 10 10 12 14 13 14 12 10 11 13 11
14 13 12 16 20 18 17 17 12 9 8 9 10 9 8 8 8 8 12 11 10 9 10 11 11 12 11 12 10 11 11 11 11 13 11 12 12 12 14 14 15 15 16 16 14 11 12 11 12
17 14 11 11 17 20 18 20 13 17 15 14 8 9 8 7 11 13 13 13 11 11 11 13 13 13 13 13 13 11 12 12 12 12 13 13 13 14 16 14 14 15 16 17 16 13 13 12 11
13 15 17 16 15 8 14 5 11 11 9 9 7 4 8 12 13 14 11 11 11 11 11 11 12 12 12 12 13 14 14 14 13 13 13 13 14 13 15 17 15 15 16 17 15 14 14 15 12
16 16 20 8 16 15 18 17 10 4 7 6 6 10 9 11 11 14 13 13 12 11 12 12 10 12 13 13 14 16 16 15 14 14 15 15 16 16 16 17 16 17 17 17 17 17 15 16 14
Wind_Direction
286 287 286 275 245 235 248 237 290 9 238 240 358 279 266 284 5 32 102 80 125 136 156 159 154 155 160 161 162 158 159 156 157 156 157 155 156 149 148 149 153 152 151 147 142 138 132 129 124
299 301 242 266 250 248 229 243 136 242 52 22 250 239 248 265 28 350 50 54 139 136 157 162 159 158 163 164 164 157 161 159 160 161 161 160 161 154 152 156 159 162 159 155 153 149 148 145 138
262 272 268 238 234 250 255 105 199 133 351 259 262 13 329 40 22 329 62 22 152 148 164 163 160 159 164 166 164 162 160 162 162 165 163 162 158 153 152 159 163 170 169 170 165 161 162 157 154
255 205 244 247 250 223 265 20 342 62 238 201 313 259 145 67 359 337 314 289 183 164 168 149 162 160 161 165 165 168 162 161 160 161 162 159 153 152 154 162 171 185 181 183 178 173 174 173 165
239 260 252 239 235 266 194 273 271 267 288 267 42 268 172 52 17 349 306 237 203 174 170 155 172 160 161 164 165 167 164 157 157 158 162 161 158 158 161 169 181 193 195 195 193 190 188 182 178
244 241 250 248 245 233 201 238 251 263 263 279 247 353 113 32 6 351 326 203 192 178 169 162 171 165 161 162 164 162 159 155 155 156 160 164 162 165 170 177 189 192 201 201 199 201 200 196 197
248 250 239 254 265 260 205 233 215 241 321 293 34 290 52 21 342 9 338 219 186 173 171 160 178 173 162 161 161 160 157 155 156 152 157 162 167 170 181 190 194 200 199 199 200 207 218 209 208
231 245 263 249 246 238 281 228 236 230 258 325 268 296 1 353 330 344 50 233 200 168 173 161 176 181 184 175 161 156 151 147 151 160 165 165 170 183 193 201 207 212 208 211 202 205 215 227 228
231 247 241 244 256 229 219 230 221 254 206 269 293 287 357 335 338 348 77 191 211 173 174 170 177 181 188 182 172 158 158 161 168 177 179 170 206 190 199 210 205 202 213 220 215 214 213 223 237
231 238 243 244 252 259 236 203 249 220 206 224 267 268 6 332 335 341 338 161 218 186 185 175 184 181 191 187 166 189 186 195 197 200 194 214 216 215 206 203 191 196 202 222 222 225 220 223 252
222 242 254 245 251 260 239 179 241 196 214 228 248 306 341 326 320 316 3 358 200 208 201 189 175 174 202 202 174 183 194 196 199 207 204 201 218 222 204 216 183 212 200 222 203 214 230 237 237
240 240 248 262 273 242 237 256 186 242 216 218 237 295 303 312 319 320 359 70 357 298 195 189 173 204 203 216 194 188 193 192 198 198 197 219 210 216 232 210 213 190 202 214 234 213 222 223 240
238 250 246 256 267 276 229 241 235 221 227 239 225 246 273 305 320 318 339 88 47 49 7 193 197 199 224 256 250 216 207 195 202 196 189 208 218 215 204 233 232 218 208 211 221 225 243 232 247
259 249 265 261 243 263 257 248 256 224 226 233 247 244 236 266 296 311 333 36 90 88 23 330 207 178 203 218 243 238 266 221 212 206 204 198 218 214 210 204 223 242 225 230 221 216 229 225 247
263 270 262 254 244 249 267 254 243 247 237 220 248 235 238 231 262 276 324 328 29 100 106 325 154 190 211 204 214 233 209 229 231 227 217 198 205 225 215 218 211 221 227 231 241 238 229 275 255
258 250 252 238 227 235 233 252 246 235 229 235 239 246 253 236 245 243 222 36 345 51 54 76 25 113 201 210 215 227 226 226 209 219 222 210 204 221 208 230 214 220 222 213 223 208 206 210 247
230 249 239 243 247 230 211 246 250 252 211 234 236 242 229 213 215 160 269 116 23 32 3 66 69 25 8 162 222 223 235 245 237 223 236 205 206 213 233 218 224 209 216 205 216 236 213 224 233
242 228 232 258 194 208 249 253 249 239 224 219 222 230 235 226 184 158 175 249 27 64 15 51 84 65 2 294 220 214 196 238 238 235 242 235 203 207 219 236 219 191 201 199 219 226 214 251 240
291 293 295 290 228 217 268 266 252 229 203 224 234 240 213 233 197 133 157 120 357 3 16 24 53 80 330 275 294 215 224 230 235 218 241 246 242 207 217 223 210 200 209 200 199 209 203 233 222
270 258 258 261 261 264 262 264 258 250 239 234 242 223 229 207 219 176 179 144 141 63 9 27 354 0 1 321 354 333 216 267 301 247 206 208 225 232 229 220 218 207 210 202 205 167 221 222 225
246 258 263 268 268 254 268 263 254 249 244 243 234 251 230 210 187 201 190 190 169 138 136 342 356 355 323 304 309 278 253 248 268 255 256 212 223 233 225 219 231 200 223 206 225 173 215 231 204
267 249 239 283 273 262 244 280 266 231 217 232 234 237 239 191 154 181 209 178 170 165 166 155 37 329 300 323 329 277 279 275 280 291 292 236 215 217 229 221 219 221 211 221 225 221 198 217 218
265 307 288 263 268 278 261 259 260 247 219 206 189 190 192 182 183 188 196 192 230 199 282 359 319 341 338 315 301 301 281 287 304 309 293 271 261 207 223 225 224 222 223 227 218 190 216 193 223
282 286 256 256 255 251 254 252 260 232 208 157 177 195 178 177 184 202 214 234 233 217 263 281 290 315 322 313 306 288 281 283 288 289 293 286 264 232 219 229 219 224 224 233 211 198 180 207 203
242 249 254 240 226 244 237 254 239 80 156 157 174 179 182 194 220 207 223 240 243 251 242 249 259 278 290 286 294 283 273 267 267 266 264 267 266 263 241 209 224 217 218 222 225 196 187 194 221
204 267 273 279 291 285 133 235 286 249 152 176 262 256 249 217 231 206 262 275 273 269 272 281 286 287 285 280 279 278 277 273 272 260 261 266 267 260 263 234 224 222 217 223 208 215 209 190 202
265 266 277 292 281 282 279 280 156 155 161 208 221 210 226 240 251 258 268 272 273 274 269 269 274 280 274 281 274 274 276 272 271 276 273 272 271 275 254 240 223 225 217 213 208 216 208 203 188
260 276 257 236 264 259 261 249 240 165 194 188 194 210 227 264 278 274 270 276 273 276 275 262 256 266 282 281 281 275 280 276 273 269 270 266 262 270 278 265 218 212 213 215 204 201 203 203 190
243 234 240 251 256 271 282 280 73 167 146 171 203 255 275 272 269 274 280 279 279 280 283 284 279 276 281 290 292 285 278 278 275 270 269 272 272 255 256 262 251 214 216 211 200 205 200 198 198
276 258 231 252 243 237 253 272 197 247 168 168 220 251 295 304 286 280 279 272 278 275 276 273 269 276 279 279 285 294 287 274 272 270 268 270 269 264 258 252 243 236 215 206 202 200 201 190 200